Lawrence, KS

10:03 AM CDT on September 23, 2017 (GMT -0500)
Lawrence Municipal

Weather History for KLWC - October, 2012

Change the Weather History Date:

Wednesday, October 10, 2012

  Actual Average Record
Temperature  
Mean Temperature 45 °F 58 °F  
Max Temperature 65 °F 71 °F 82 °F (1999)
Min Temperature 24 °F 45 °F 24 °F (2012)
Degree Days  
Heating Degree Days 20 8  
Month to date heating degree days 148 67  
Since 1 July heating degree days 221 130  
Cooling Degree Days 0 1  
Month to date cooling degree days 3 16  
Year to date cooling degree days 1735 1360  
Moisture  
Dew Point 27 °F    
Average Humidity 58    
Maximum Humidity 92    
Minimum Humidity 24    
Precipitation  
Precipitation 0.00 in 0.09 in 0.50 in (2006)
Month to date precipitation T 1.16  
Year to date precipitation 18.13 33.18  
Sea Level Pressure  
Sea Level Pressure 30.22 in    
Wind  
Wind Speed 4 mph (WSW)    
Max Wind Speed 13 mph    
Max Gust Speed 18 mph    
Visibility 10 miles    
Events      
T = Trace of Precipitation, MM = Missing Value Source: NWS Daily Summary

Daily Weather History Graph

Daily Weather History Graph

Search for Another Location

Airport or City:

Trip Planner

Search our weather history database for the weather conditions in past years. The results will help you decide how hot, cold, wet, or windy it might be!

Date:

Astronomy

Oct. 10, 2012 Rise Set
Actual Time 7:25 AM CDT 6:48 PM CDT
Civil Twilight 6:59 AM CDT 7:15 PM CDT
Nautical Twilight 6:28 AM CDT 7:46 PM CDT
Astronomical Twilight 5:57 AM CDT 8:17 PM CDT
Moon 2:05 AM CDT (10/10) 3:50 PM CDT (10/10)
Length of Visible Light 12h 16m
Length of Day
11h 22m
Waning Crescent, 27% of the Moon is Illuminated
Oct 10
Waning Crescent
Oct 15
New
Oct 21
First Quarter
Oct 29
Full
Nov 6
Last Quarter

Hourly Weather History & Observations

Time (CDT) Temp. Windchill Dew Point Humidity Pressure Visibility Wind Dir Wind Speed Gust Speed Precip Events Conditions
12:52 AM 32.0 °F 28.7 °F 26.1 °F 79% 30.16 in 10.0 mi NW 3.5 mph - N/A   Clear
1:52 AM 30.9 °F 23.5 °F 25.0 °F 79% 30.20 in 10.0 mi NNW 8.1 mph - N/A   Clear
2:52 AM 30.9 °F 25.2 °F 25.0 °F 79% 30.22 in 10.0 mi NW 5.8 mph - N/A   Clear
3:52 AM 28.0 °F 21.7 °F 24.1 °F 85% 30.23 in 10.0 mi NNW 5.8 mph - N/A   Clear
4:52 AM 27.0 °F 23.0 °F 23.0 °F 85% 30.23 in 10.0 mi NW 3.5 mph - N/A   Clear
5:52 AM 26.1 °F 20.5 °F 21.9 °F 84% 30.26 in 10.0 mi NNW 4.6 mph - N/A   Clear
6:52 AM 26.1 °F 20.5 °F 23.0 °F 88% 30.27 in 10.0 mi NW 4.6 mph - N/A   Clear
7:52 AM 27.0 °F 20.5 °F 24.1 °F 89% 30.28 in 3.0 mi NW 5.8 mph - N/A   Clear
8:52 AM 37.0 °F - 30.0 °F 76% 30.30 in 9.0 mi Calm Calm - N/A   Clear
9:52 AM 46.0 °F - 32.0 °F 58% 30.31 in 10.0 mi Calm Calm - N/A   Clear
11:52 AM 57.9 °F - 25.0 °F 28% 30.30 in 10.0 mi SW 5.8 mph - N/A   Clear
12:52 PM 60.1 °F - 25.0 °F 26% 30.28 in 10.0 mi South 3.5 mph - N/A   Clear
1:52 PM 64.0 °F - 26.1 °F 24% 30.25 in 10.0 mi West 6.9 mph - N/A   Clear
2:52 PM 63.0 °F - 26.1 °F 25% 30.22 in 10.0 mi Calm Calm - N/A   Clear
3:52 PM 64.0 °F - 26.1 °F 24% 30.19 in 10.0 mi SW 4.6 mph - N/A   Clear
4:52 PM 64.0 °F - 26.1 °F 24% 30.17 in 10.0 mi Calm Calm - N/A   Clear
5:52 PM 63.0 °F - 27.0 °F 26% 30.15 in 10.0 mi SSW 3.5 mph - N/A   Clear
6:52 PM 55.9 °F - 28.9 °F 36% 30.15 in 9.0 mi South 6.9 mph - N/A   Clear
7:52 PM 46.9 °F - 28.0 °F 48% 30.17 in 9.0 mi SSE 5.8 mph - N/A   Clear
8:52 PM 46.0 °F 43.1 °F 28.9 °F 51% 30.16 in 10.0 mi SE 5.8 mph - N/A   Clear
9:52 PM 46.9 °F - 30.9 °F 54% 30.16 in 10.0 mi SE 4.6 mph - N/A   Clear
10:52 PM 45.0 °F 41.8 °F 30.9 °F 58% 30.16 in 10.0 mi ESE 5.8 mph - N/A   Clear
11:52 PM 44.1 °F 41.5 °F 32.0 °F 63% 30.16 in 10.0 mi ESE 4.6 mph - N/A   Clear